datetime,max air temp
1990-10-01,65.66
1990-10-02,54.32
1990-10-03,62.42
1990-10-04,70.88
1990-10-05,48.02
1990-10-06,49.28
1990-10-07,53.78
1990-10-08,60.08
1990-10-09,66.92
1990-10-10,54.14
1990-10-11,64.76
1990-10-12,47.84
1990-10-13,47.84
1990-10-14,59.0
1990-10-15,52.16
1990-10-16,46.58
1990-10-17,62.78
1990-10-18,38.84
1990-10-19,43.88
1990-10-20,54.32
1990-10-21,53.78
1990-10-22,54.68
1990-10-23,62.96
1990-10-24,71.24
1990-10-25,61.88
1990-10-26,62.78
1990-10-27,63.68
1990-10-28,44.42
1990-10-29,51.98
1990-10-30,46.22
1990-10-31,38.84
1990-11-01,37.76
1990-11-02,42.44
1990-11-03,48.02
1990-11-04,43.7
1990-11-05,33.8
1990-11-06,39.38
1990-11-07,41.36
1990-11-08,42.8
1990-11-09,55.04
1990-11-10,62.78
1990-11-11,61.88
1990-11-12,62.42
1990-11-13,45.5
1990-11-14,34.34
1990-11-15,40.28
1990-11-16,50.72
1990-11-17,43.16
1990-11-18,43.88
1990-11-19,32.36
1990-11-20,30.02
1990-11-21,32.36
1990-11-22,39.38
1990-11-23,45.68
1990-11-24,53.42
1990-11-25,40.46
1990-11-26,31.64
1990-11-27,31.46
1990-11-28,36.32
1990-11-29,37.58
1990-11-30,35.6
1990-12-01,28.76
1990-12-02,36.5
1990-12-03,38.66
1990-12-04,34.34
1990-12-05,37.94
1990-12-06,42.44
1990-12-07,44.78
1990-12-08,46.58
1990-12-09,38.48
1990-12-10,35.78
1990-12-11,35.6
1990-12-12,33.62
1990-12-13,24.8
1990-12-14,29.48
1990-12-15,29.3
1990-12-16,28.4
1990-12-17,32.36
1990-12-18,31.64
1990-12-19,18.14
1990-12-20,2.84
1990-12-21,-1.12
1990-12-22,19.22
1990-12-23,23.36
1990-12-24,34.88
1990-12-25,36.5
1990-12-26,39.92
1990-12-27,26.96
1990-12-28,23.36
1990-12-29,21.56
1990-12-30,36.68
1990-12-31,42.08
1991-01-01,43.52
1991-01-02,38.66
1991-01-03,40.46
1991-01-04,45.5
1991-01-05,41.18
1991-01-06,33.62
1991-01-07,35.78
1991-01-08,33.08
1991-01-09,38.12
1991-01-10,33.44
1991-01-11,37.58
1991-01-12,40.64
1991-01-13,39.02
1991-01-14,39.38
1991-01-15,38.48
1991-01-16,49.28
1991-01-17,55.04
1991-01-18,48.2
1991-01-19,43.88
1991-01-20,40.28
1991-01-21,39.92
1991-01-22,49.1
1991-01-23,42.62
1991-01-24,45.14
1991-01-25,49.82
1991-01-26,48.02
1991-01-27,41.9
1991-01-28,38.12
1991-01-29,50.18
1991-01-30,51.08
1991-01-31,48.74
1991-02-01,44.06
1991-02-02,36.14
1991-02-03,36.68
1991-02-04,37.04
1991-02-05,44.6
1991-02-06,46.04
1991-02-07,57.02
1991-02-08,51.44
1991-02-09,53.42
1991-02-10,55.4
1991-02-11,50.0
1991-02-12,36.86
1991-02-13,46.76
1991-02-14,58.46
1991-02-15,52.16
1991-02-16,38.66
1991-02-17,34.34
1991-02-18,38.48
1991-02-19,52.52
1991-02-20,54.86
1991-02-21,54.5
1991-02-22,53.6
1991-02-23,53.06
1991-02-24,52.52
1991-02-25,57.2
1991-02-26,60.44
1991-02-27,54.14
1991-02-28,38.3
1991-03-01,41.72
1991-03-02,33.08
1991-03-03,43.88
1991-03-04,41.36
1991-03-05,28.94
1991-03-06,31.64
1991-03-07,42.26
1991-03-08,45.5
1991-03-09,41.36
1991-03-10,35.06
1991-03-11,30.56
1991-03-12,38.48
1991-03-13,35.42
1991-03-14,30.56
1991-03-15,42.98
1991-03-16,37.4
1991-03-17,50.72
1991-03-18,45.32
1991-03-19,42.08
1991-03-20,40.46
1991-03-21,36.5
1991-03-22,37.58
1991-03-23,35.6
1991-03-24,33.26
1991-03-25,31.1
1991-03-26,44.42
1991-03-27,48.74
1991-03-28,46.22
1991-03-29,57.2
1991-03-30,62.06
1991-03-31,55.58
1991-04-01,50.9
1991-04-02,47.66
1991-04-03,42.98
1991-04-04,55.58
1991-04-05,38.48
1991-04-06,38.48
1991-04-07,36.86
1991-04-08,44.06
1991-04-09,36.5
1991-04-10,33.44
1991-04-11,47.3
1991-04-12,57.74
1991-04-13,54.32
1991-04-14,45.5
1991-04-15,42.62
1991-04-16,41.54
1991-04-17,49.64
1991-04-18,50.9
1991-04-19,54.32
1991-04-20,46.76
1991-04-21,44.78
1991-04-22,57.74
1991-04-23,49.82
1991-04-24,36.68
1991-04-25,37.04
1991-04-26,35.42
1991-04-27,45.68
1991-04-28,47.84
1991-04-29,57.38
1991-04-30,56.3
1991-05-01,42.98
1991-05-02,50.72
1991-05-03,53.96
1991-05-04,60.8
1991-05-05,57.38
1991-05-06,53.06
1991-05-07,51.44
1991-05-08,39.02
1991-05-09,40.46
1991-05-10,39.38
1991-05-11,47.84
1991-05-12,54.5
1991-05-13,44.78
1991-05-14,52.52
1991-05-15,59.54
1991-05-16,52.88
1991-05-17,31.82
1991-05-18,40.82
1991-05-19,41.0
1991-05-20,59.9
1991-05-21,54.86
1991-05-22,62.96
1991-05-23,61.52
1991-05-24,58.64
1991-05-25,52.88
1991-05-26,55.04
1991-05-27,56.66
1991-05-28,51.26
1991-05-29,41.0
1991-05-30,44.06
1991-05-31,62.24
1991-06-01,67.1
1991-06-02,67.46
1991-06-03,59.18
1991-06-04,53.6
1991-06-05,57.74
1991-06-06,60.26
1991-06-07,65.12
1991-06-08,67.82
1991-06-09,79.7
1991-06-10,77.54
1991-06-11,63.68
1991-06-12,54.32
1991-06-13,51.62
1991-06-14,61.88
1991-06-15,63.68
1991-06-16,57.56
1991-06-17,67.28
1991-06-18,68.54
1991-06-19,42.62
1991-06-20,57.02
1991-06-21,61.34
1991-06-22,62.42
1991-06-23,61.34
1991-06-24,59.0
1991-06-25,58.46
1991-06-26,63.68
1991-06-27,55.94
1991-06-28,57.74
1991-06-29,56.48
1991-06-30,66.74
1991-07-01,80.6
1991-07-02,88.7
1991-07-03,90.14
1991-07-04,85.1
1991-07-05,77.9
1991-07-06,79.7
1991-07-07,79.88
1991-07-08,76.82
1991-07-09,68.9
1991-07-10,71.96
1991-07-11,79.16
1991-07-12,82.4
1991-07-13,71.42
1991-07-14,69.62
1991-07-15,69.26
1991-07-16,55.04
1991-07-17,65.84
1991-07-18,73.94
1991-07-19,74.3
1991-07-20,73.76
1991-07-21,75.02
1991-07-22,87.08
1991-07-23,82.58
1991-07-24,75.02
1991-07-25,71.06
1991-07-26,77.36
1991-07-27,82.58
1991-07-28,82.76
1991-07-29,79.7
1991-07-30,82.4
1991-07-31,78.8
1991-08-01,76.46
1991-08-02,79.7
1991-08-03,80.24
1991-08-04,78.8
1991-08-05,76.28
1991-08-06,73.04
1991-08-07,69.8
1991-08-08,80.42
1991-08-09,65.66
1991-08-10,74.12
1991-08-11,76.46
1991-08-12,77.9
1991-08-13,76.64
1991-08-14,81.5
1991-08-15,78.26
1991-08-16,80.06
1991-08-17,80.96
1991-08-18,79.34
1991-08-19,81.5
1991-08-20,81.86
1991-08-21,83.66
1991-08-22,82.04
1991-08-23,76.46
1991-08-24,75.02
1991-08-25,68.72
1991-08-26,74.66
1991-08-27,62.6
1991-08-28,57.56
1991-08-29,72.86
1991-08-30,76.46
1991-08-31,71.42
1991-09-01,68.54
1991-09-02,80.24
1991-09-03,86.0
1991-09-04,84.92
1991-09-05,82.04
1991-09-06,78.26
1991-09-07,68.18
1991-09-08,63.14
1991-09-09,67.46
1991-09-10,69.26
1991-09-11,71.42
1991-09-12,76.46
1991-09-13,68.54
1991-09-14,73.22
1991-09-15,79.52
1991-09-16,85.46
1991-09-17,88.16
1991-09-18,85.64
1991-09-19,86.18
1991-09-20,69.8
1991-09-21,69.44
1991-09-22,78.8
1991-09-23,76.82
1991-09-24,81.5
1991-09-25,86.18
1991-09-26,77.72
1991-09-27,74.48
1991-09-28,72.86
1991-09-29,76.64
1991-09-30,79.52
1991-10-01,77.54
1991-10-02,74.3
1991-10-03,79.16
1991-10-04,79.16
1991-10-05,81.86
1991-10-06,74.48
1991-10-07,69.26
1991-10-08,73.58
1991-10-09,76.64
1991-10-10,80.42
1991-10-11,82.58
1991-10-12,77.0
1991-10-13,75.2
1991-10-14,82.04
1991-10-15,78.62
1991-10-16,62.06
1991-10-17,61.34
1991-10-18,66.56
1991-10-19,68.72
1991-10-20,68.72
1991-10-21,59.9
1991-10-22,39.56
1991-10-23,37.4
1991-10-24,33.8
1991-10-25,36.68
1991-10-26,33.44
1991-10-27,33.8
1991-10-28,35.42
1991-10-29,40.82
1991-10-30,39.92
1991-10-31,57.56
1991-11-01,55.58
1991-11-02,51.08
1991-11-03,57.56
1991-11-04,53.96
1991-11-05,47.48
1991-11-06,52.88
1991-11-07,65.12
1991-11-08,47.84
1991-11-09,51.62
1991-11-10,54.14
1991-11-11,59.9
1991-11-12,48.02
1991-11-13,39.02
1991-11-14,33.08
1991-11-15,43.52
1991-11-16,36.68
1991-11-17,32.9
1991-11-18,32.9
1991-11-19,35.24
1991-11-20,35.42
1991-11-21,37.4
1991-11-22,36.86
1991-11-23,42.98
1991-11-24,38.84
1991-11-25,41.0
1991-11-26,42.08
1991-11-27,32.18
1991-11-28,28.04
1991-11-29,31.82
1991-11-30,30.74
1991-12-01,33.98
1991-12-02,34.7
1991-12-03,43.7
1991-12-04,41.72
1991-12-05,41.72
1991-12-06,37.94
1991-12-07,32.9
1991-12-08,36.86
1991-12-09,41.36
1991-12-10,38.84
1991-12-11,32.9
1991-12-12,34.34
1991-12-13,38.48
1991-12-14,37.04
1991-12-15,44.24
1991-12-16,42.8
1991-12-17,38.66
1991-12-18,32.0
1991-12-19,33.08
1991-12-20,34.16
1991-12-21,36.68
1991-12-22,35.78
1991-12-23,42.98
1991-12-24,38.48
1991-12-25,38.48
1991-12-26,38.66
1991-12-27,42.08
1991-12-28,34.7
1991-12-29,32.9
1991-12-30,37.94
1991-12-31,33.98
1992-01-01,33.98
1992-01-02,40.64
1992-01-03,34.52
1992-01-04,32.72
1992-01-05,35.06
1992-01-06,31.46
1992-01-07,39.38
1992-01-08,39.38
1992-01-09,44.78
1992-01-10,36.68
1992-01-11,31.64
1992-01-12,33.08
1992-01-13,37.22
1992-01-14,46.58
1992-01-15,45.5
1992-01-16,34.52
1992-01-17,35.24
1992-01-18,43.7
1992-01-19,45.14
1992-01-20,48.02
1992-01-21,44.78
1992-01-22,46.4
1992-01-23,47.48
1992-01-24,41.72
1992-01-25,40.46
1992-01-26,39.02
1992-01-27,45.86
1992-01-28,45.14
1992-01-29,55.4
1992-01-30,51.26
1992-01-31,49.64
1992-02-01,35.06
1992-02-02,44.6
1992-02-03,49.82
1992-02-04,48.92
1992-02-05,49.64
1992-02-06,43.88
1992-02-07,47.48
1992-02-08,47.66
1992-02-09,41.72
1992-02-10,43.52
1992-02-11,46.22
1992-02-12,41.18
1992-02-13,42.98
1992-02-14,33.98
1992-02-15,39.38
1992-02-16,32.0
1992-02-17,37.58
1992-02-18,44.42
1992-02-19,41.0
1992-02-20,44.06
1992-02-21,39.38
1992-02-22,40.1
1992-02-23,57.2
1992-02-24,62.24
1992-02-25,58.82
1992-02-26,61.34
1992-02-27,64.76
1992-02-28,56.48
1992-02-29,45.68
1992-03-01,48.02
1992-03-02,48.56
1992-03-03,49.64
1992-03-04,44.78
1992-03-05,43.52
1992-03-06,35.24
1992-03-07,42.62
1992-03-08,51.08
1992-03-09,54.86
1992-03-10,56.3
1992-03-11,60.08
1992-03-12,64.22
1992-03-13,54.5
1992-03-14,49.46
1992-03-15,39.38
1992-03-16,38.3
1992-03-17,41.0
1992-03-18,51.98
1992-03-19,56.3
1992-03-20,57.92
1992-03-21,60.08
1992-03-22,54.86
1992-03-23,52.34
1992-03-24,57.74
1992-03-25,61.7
1992-03-26,52.88
1992-03-27,53.24
1992-03-28,57.74
1992-03-29,56.66
1992-03-30,46.22
1992-03-31,63.68
1992-04-01,67.46
1992-04-02,70.52
1992-04-03,51.44
1992-04-04,41.36
1992-04-05,41.18
1992-04-06,45.14
1992-04-07,54.32
1992-04-08,44.6
1992-04-09,41.18
1992-04-10,53.96
1992-04-11,45.14
1992-04-12,49.46
1992-04-13,49.64
1992-04-14,57.2
1992-04-15,48.2
1992-04-16,47.3
1992-04-17,43.16
1992-04-18,53.06
1992-04-19,64.94
1992-04-20,54.5
1992-04-21,44.96
1992-04-22,41.36
1992-04-23,58.64
1992-04-24,62.06
1992-04-25,69.26
1992-04-26,66.2
1992-04-27,67.1
1992-04-28,70.16
1992-04-29,52.34
1992-04-30,45.5
1992-05-01,60.62
1992-05-02,71.24
1992-05-03,77.36
1992-05-04,79.52
1992-05-05,80.06
1992-05-06,81.68
1992-05-07,75.92
1992-05-08,62.42
1992-05-09,60.8
1992-05-10,61.16
1992-05-11,57.92
1992-05-12,64.94
1992-05-13,68.36
1992-05-14,69.26
1992-05-15,66.74
1992-05-16,71.78
1992-05-17,71.96
1992-05-18,64.94
1992-05-19,55.76
1992-05-20,51.62
1992-05-21,65.12
1992-05-22,74.3
1992-05-23,77.72
1992-05-24,83.84
1992-05-25,69.62
1992-05-26,63.68
1992-05-27,67.64
1992-05-28,67.1
1992-05-29,71.06
1992-05-30,77.9
1992-05-31,81.32
1992-06-01,71.42
1992-06-02,78.62
1992-06-03,77.0
1992-06-04,70.7
1992-06-05,71.78
1992-06-06,72.32
1992-06-07,68.9
1992-06-08,75.56
1992-06-09,67.46
1992-06-10,71.42
1992-06-11,59.72
1992-06-12,46.94
1992-06-13,44.06
1992-06-14,50.18
1992-06-15,49.82
1992-06-16,57.56
1992-06-17,70.34
1992-06-18,72.68
1992-06-19,76.1
1992-06-20,79.7
1992-06-21,87.26
1992-06-22,91.4
1992-06-23,89.96
1992-06-24,78.08
1992-06-25,64.58
1992-06-26,77.72
1992-06-27,77.9
1992-06-28,64.94
1992-06-29,52.52
1992-06-30,52.34
1992-07-01,62.24
1992-07-02,65.66
1992-07-03,71.6
1992-07-04,62.42
1992-07-05,57.02
1992-07-06,61.34
1992-07-07,70.16
1992-07-08,69.62
1992-07-09,74.3
1992-07-10,71.42
1992-07-11,67.28
1992-07-12,74.66
1992-07-13,76.82
1992-07-14,76.46
1992-07-15,81.14
1992-07-16,89.42
1992-07-17,73.76
1992-07-18,82.58
1992-07-19,83.12
1992-07-20,70.16
1992-07-21,71.96
1992-07-22,55.4
1992-07-23,65.66
1992-07-24,76.82
1992-07-25,84.02
1992-07-26,84.74
1992-07-27,86.18
1992-07-28,84.2
1992-07-29,87.44
1992-07-30,91.22
1992-07-31,84.56
1992-08-01,82.58
1992-08-02,83.48
1992-08-03,81.32
1992-08-04,73.4
1992-08-05,76.82
1992-08-06,73.04
1992-08-07,67.1
1992-08-08,70.88
1992-08-09,83.3
1992-08-10,91.22
1992-08-11,96.26
1992-08-12,84.92
1992-08-13,91.04
1992-08-14,91.4
1992-08-15,85.28
1992-08-16,86.72
1992-08-17,91.4
1992-08-18,89.06
1992-08-19,83.3
1992-08-20,80.06
1992-08-21,62.42
1992-08-22,59.0
1992-08-23,69.26
1992-08-24,73.58
1992-08-25,78.26
1992-08-26,82.76
1992-08-27,81.14
1992-08-28,78.62
1992-08-29,78.62
1992-08-30,74.84
1992-08-31,70.52
1992-09-01,
1992-09-02,75.02
1992-09-03,66.02
1992-09-04,58.82
1992-09-05,60.98
1992-09-06,58.64
1992-09-07,68.0
1992-09-08,67.46
1992-09-09,78.8
1992-09-10,76.28
1992-09-11,71.06
1992-09-12,58.46
1992-09-13,61.52
1992-09-14,67.82
1992-09-15,66.74
1992-09-16,75.2
1992-09-17,75.56
1992-09-18,78.08
1992-09-19,69.26
1992-09-20,79.52
1992-09-21,85.46
1992-09-22,81.68
1992-09-23,68.54
1992-09-24,48.2
1992-09-25,60.8
1992-09-26,71.6
1992-09-27,77.0
1992-09-28,80.96
1992-09-29,77.72
1992-09-30,72.32
1992-10-01,68.0
1992-10-02,42.8
1992-10-03,44.42
1992-10-04,62.06
1992-10-05,67.28
1992-10-06,63.86
1992-10-07,69.44
1992-10-08,63.86
1992-10-09,67.28
1992-10-10,76.1
1992-10-11,81.32
1992-10-12,73.4
1992-10-13,58.82
1992-10-14,57.56
1992-10-15,59.72
1992-10-16,59.54
1992-10-17,65.3
1992-10-18,58.64
1992-10-19,67.28
1992-10-20,53.06
1992-10-21,50.72
1992-10-22,61.52
1992-10-23,66.56
1992-10-24,67.1
1992-10-25,68.0
1992-10-26,63.5
1992-10-27,62.96
1992-10-28,42.8
1992-10-29,40.82
1992-10-30,35.96
1992-10-31,39.74
1992-11-01,45.68
1992-11-02,44.6
1992-11-03,46.94
1992-11-04,42.08
1992-11-05,52.34
1992-11-06,59.72
1992-11-07,43.52
1992-11-08,34.16
1992-11-09,34.88
1992-11-10,40.82
1992-11-11,43.52
1992-11-12,55.58
1992-11-13,57.74
1992-11-14,60.44
1992-11-15,52.52
1992-11-16,42.62
1992-11-17,39.92
1992-11-18,41.72
1992-11-19,31.82
1992-11-20,36.14
1992-11-21,36.14
1992-11-22,31.64
1992-11-23,31.64
1992-11-24,33.26
1992-11-25,36.68
1992-11-26,38.12
1992-11-27,36.86
1992-11-28,37.58
1992-11-29,38.66
1992-11-30,36.68
1992-12-01,37.58
1992-12-02,32.0
1992-12-03,27.14
1992-12-04,31.46
1992-12-05,35.24
1992-12-06,33.8
1992-12-07,33.08
1992-12-08,29.12
1992-12-09,36.32
1992-12-10,38.12
1992-12-11,32.0
1992-12-12,31.46
1992-12-13,40.28
1992-12-14,34.34
1992-12-15,28.22
1992-12-16,29.84
1992-12-17,26.24
1992-12-18,26.24
1992-12-19,29.66
1992-12-20,32.0
1992-12-21,29.66
1992-12-22,33.44
1992-12-23,
1992-12-24,40.1
1992-12-25,36.32
1992-12-26,34.88
1992-12-27,34.34
1992-12-28,30.38
1992-12-29,27.86
1992-12-30,25.7
1992-12-31,30.38
1993-01-01,25.34
1993-01-02,28.22
1993-01-03,24.8
1993-01-04,27.68
1993-01-05,30.92
1993-01-06,22.46
1993-01-07,35.42
1993-01-08,28.04
1993-01-09,19.04
1993-01-10,22.46
1993-01-11,24.08
1993-01-12,25.52
1993-01-13,26.96
1993-01-14,35.24
1993-01-15,29.12
1993-01-16,39.92
1993-01-17,32.72
1993-01-18,38.84
1993-01-19,33.98
1993-01-20,31.82
1993-01-21,32.0
1993-01-22,30.74
1993-01-23,30.2
1993-01-24,45.14
1993-01-25,48.2
1993-01-26,49.1
1993-01-27,46.4
1993-01-28,43.88
1993-01-29,39.74
1993-01-30,47.48
1993-01-31,49.64
1993-02-01,50.54
1993-02-02,48.74
1993-02-03,43.34
1993-02-04,46.58
1993-02-05,41.36
1993-02-06,41.9
1993-02-07,43.52
1993-02-08,34.7
1993-02-09,37.94
1993-02-10,33.98
1993-02-11,34.88
1993-02-12,37.94
1993-02-13,42.44
1993-02-14,42.8
1993-02-15,28.94
1993-02-16,25.52
1993-02-17,17.96
1993-02-18,35.24
1993-02-19,37.94
1993-02-20,27.86
1993-02-21,24.98
1993-02-22,36.68
1993-02-23,31.46
1993-02-24,31.28
1993-02-25,35.24
1993-02-26,33.8
1993-02-27,45.86
1993-02-28,50.36
1993-03-01,38.66
1993-03-02,44.78
1993-03-03,43.34
1993-03-04,47.12
1993-03-05,60.26
1993-03-06,63.32
1993-03-07,61.88
1993-03-08,59.72
1993-03-09,49.28
1993-03-10,47.84
1993-03-11,43.7
1993-03-12,54.68
1993-03-13,49.1
1993-03-14,41.72
1993-03-15,44.78
1993-03-16,41.54
1993-03-17,45.68
1993-03-18,48.74
1993-03-19,49.64
1993-03-20,48.38
1993-03-21,57.2
1993-03-22,56.84
1993-03-23,40.28
1993-03-24,39.56
1993-03-25,40.64
1993-03-26,48.02
1993-03-27,43.88
1993-03-28,53.06
1993-03-29,49.1
1993-03-30,45.14
1993-03-31,49.46
1993-04-01,37.94
1993-04-02,37.94
1993-04-03,39.92
1993-04-04,37.76
1993-04-05,44.06
1993-04-06,42.62
1993-04-07,57.02
1993-04-08,40.82
1993-04-09,42.08
1993-04-10,36.14
1993-04-11,41.18
1993-04-12,49.28
1993-04-13,41.0
1993-04-14,54.32
1993-04-15,45.5
1993-04-16,53.96
1993-04-17,35.06
1993-04-18,43.52
1993-04-19,55.76
1993-04-20,58.46
1993-04-21,51.62
1993-04-22,39.92
1993-04-23,42.26
1993-04-24,47.84
1993-04-25,51.8
1993-04-26,46.4
1993-04-27,54.68
1993-04-28,59.18
1993-04-29,53.78
1993-04-30,56.3
1993-05-01,59.72
1993-05-02,62.78
1993-05-03,39.92
1993-05-04,45.86
1993-05-05,61.88
1993-05-06,41.9
1993-05-07,43.52
1993-05-08,50.72
1993-05-09,70.16
1993-05-10,69.8
1993-05-11,68.9
1993-05-12,55.94
1993-05-13,59.0
1993-05-14,62.06
1993-05-15,70.16
1993-05-16,68.9
1993-05-17,72.32
1993-05-18,65.66
1993-05-19,63.86
1993-05-20,54.14
1993-05-21,49.64
1993-05-22,63.14
1993-05-23,72.32
1993-05-24,67.46
1993-05-25,52.52
1993-05-26,58.28
1993-05-27,55.04
1993-05-28,54.5
1993-05-29,59.36
1993-05-30,54.86
1993-05-31,51.08
1993-06-01,49.28
1993-06-02,51.98
1993-06-03,56.12
1993-06-04,53.06
1993-06-05,47.12
1993-06-06,46.76
1993-06-07,48.92
1993-06-08,60.08
1993-06-09,63.5
1993-06-10,58.46
1993-06-11,46.04
1993-06-12,65.12
1993-06-13,73.76
1993-06-14,68.36
1993-06-15,58.28
1993-06-16,67.82
1993-06-17,75.02
1993-06-18,79.7
1993-06-19,80.24
1993-06-20,79.88
1993-06-21,50.72
1993-06-22,51.62
1993-06-23,
1993-06-24,
1993-06-25,
1993-06-26,
1993-06-27,
1993-06-28,
1993-06-29,
1993-06-30,
1993-07-01,
1993-07-02,55.04
1993-07-03,64.22
1993-07-04,68.36
1993-07-05,72.32
1993-07-06,74.84
1993-07-07,70.52
1993-07-08,76.1
1993-07-09,72.5
1993-07-10,71.78
1993-07-11,70.16
1993-07-12,64.94
1993-07-13,57.38
1993-07-14,59.54
1993-07-15,58.28
1993-07-16,61.52
1993-07-17,63.5
1993-07-18,71.42
1993-07-19,64.04
1993-07-20,57.38
1993-07-21,64.4
1993-07-22,52.88
1993-07-23,
1993-07-24,66.38
1993-07-25,61.16
1993-07-26,73.58
1993-07-27,78.8
1993-07-28,71.06
1993-07-29,62.42
1993-07-30,69.26
1993-07-31,79.7
1993-08-01,86.54
1993-08-02,87.98
1993-08-03,86.36
1993-08-04,83.66
1993-08-05,82.04
1993-08-06,77.36
1993-08-07,72.14
1993-08-08,76.1
1993-08-09,75.56
1993-08-10,73.58
1993-08-11,68.18
1993-08-12,
1993-08-13,71.06
1993-08-14,63.86
1993-08-15,
1993-08-16,
1993-08-17,
1993-08-18,
1993-08-19,
1993-08-20,
1993-08-21,
1993-08-22,
1993-08-23,
1993-08-24,
1993-08-25,
1993-08-26,
1993-08-27,
1993-08-28,
1993-08-29,
1993-08-30,
1993-08-31,
1993-09-01,
1993-09-02,
1993-09-03,
1993-09-04,
1993-09-05,
1993-09-06,
1993-09-07,
1993-09-08,
1993-09-09,
1993-09-10,
1993-09-11,
1993-09-12,
1993-09-13,
1993-09-14,
1993-09-15,
1993-09-16,58.46
1993-09-17,59.54
1993-09-18,59.72
1993-09-19,59.72
1993-09-20,55.4
1993-09-21,60.08
1993-09-22,62.96
1993-09-23,
1993-09-24,73.58
1993-09-25,75.38
1993-09-26,78.98
1993-09-27,79.7
1993-09-28,78.8
1993-09-29,83.66
1993-09-30,79.16
1993-10-01,76.1
1993-10-02,79.16
1993-10-03,79.16
1993-10-04,67.82
1993-10-05,61.16
1993-10-06,53.42
1993-10-07,50.72
1993-10-08,55.58
1993-10-09,56.3
1993-10-10,48.38
1993-10-11,54.32
1993-10-12,53.42
1993-10-13,
1993-10-14,51.62
1993-10-15,45.68
1993-10-16,43.34
1993-10-17,50.54
1993-10-18,55.04
1993-10-19,60.8
1993-10-20,64.76
1993-10-21,59.72
1993-10-22,63.68
1993-10-23,61.88
1993-10-24,
1993-10-25,
1993-10-26,
1993-10-27,64.76
1993-10-28,-60.52
1993-10-29,57.92
1993-10-30,64.4
1993-10-31,
1993-11-01,48.38
1993-11-02,62.96
1993-11-03,45.86
1993-11-04,50.54
1993-11-05,52.16
1993-11-06,56.3
1993-11-07,55.94
1993-11-08,56.3
1993-11-09,52.16
1993-11-10,44.24
1993-11-11,39.56
1993-11-12,28.76
1993-11-13,39.56
1993-11-14,46.76
1993-11-15,50.54
1993-11-16,45.5
1993-11-17,38.84
1993-11-18,38.48
1993-11-19,
1993-11-20,
1993-11-21,44.96
1993-11-22,
1993-11-23,20.48
1993-11-24,30.2
1993-11-25,
1993-11-26,41.36
1993-11-27,38.12
1993-11-28,39.92
1993-11-29,37.94
1993-11-30,35.6
1993-12-01,
1993-12-02,37.94
1993-12-03,38.84
1993-12-04,
1993-12-05,38.48
1993-12-06,35.24
1993-12-07,33.62
1993-12-08,33.62
1993-12-09,38.3
1993-12-10,45.32
1993-12-11,39.74
1993-12-12,30.56
1993-12-13,
1993-12-14,32.9
1993-12-15,32.54
1993-12-16,
1993-12-17,22.46
1993-12-18,33.62
1993-12-19,38.12
1993-12-20,40.64
1993-12-21,
1993-12-22,
1993-12-23,42.8
1993-12-24,45.32
1993-12-25,42.26
1993-12-26,46.94
1993-12-27,
1993-12-28,
1993-12-29,
1993-12-30,
1993-12-31,33.26
1994-01-01,36.32
1994-01-02,37.76
1994-01-03,42.44
1994-01-04,40.1
1994-01-05,
1994-01-06,32.36
1994-01-07,36.86
1994-01-08,33.44
1994-01-09,33.08
1994-01-10,37.76
1994-01-11,43.52
1994-01-12,43.34
1994-01-13,43.88
1994-01-14,47.66
1994-01-15,46.58
1994-01-16,53.42
1994-01-17,
1994-01-18,57.56
1994-01-19,56.84
1994-01-20,53.24
1994-01-21,47.84
1994-01-22,48.38
1994-01-23,42.62
1994-01-24,36.14
1994-01-25,
1994-01-26,38.66
1994-01-27,36.5
1994-01-28,36.86
1994-01-29,51.44
1994-01-30,42.26
1994-01-31,41.54
1994-02-01,44.96
1994-02-02,43.16
1994-02-03,44.96
1994-02-04,47.3
1994-02-05,44.42
1994-02-06,34.88
1994-02-07,33.98
1994-02-08,41.54
1994-02-09,33.08
1994-02-10,30.02
1994-02-11,32.9
1994-02-12,39.38
1994-02-13,40.28
1994-02-14,43.7
1994-02-15,
1994-02-16,45.14
1994-02-17,
1994-02-18,34.16
1994-02-19,34.52
1994-02-20,32.54
1994-02-21,28.58
1994-02-22,35.24
1994-02-23,
1994-02-24,42.8
1994-02-25,36.5
1994-02-26,
1994-02-27,36.14
1994-02-28,58.64
1994-03-01,61.88
1994-03-02,56.66
1994-03-03,
1994-03-04,50.54
1994-03-05,46.22
1994-03-06,51.08
1994-03-07,60.44
1994-03-08,58.1
1994-03-09,58.1
1994-03-10,46.4
1994-03-11,
1994-03-12,
1994-03-13,69.8
1994-03-14,66.74
1994-03-15,57.56
1994-03-16,35.42
1994-03-17,49.82
1994-03-18,34.34
1994-03-19,38.48
1994-03-20,48.02
1994-03-21,32.9
1994-03-22,26.78
1994-03-23,32.72
1994-03-24,53.78
1994-03-25,53.42
1994-03-26,63.68
1994-03-27,66.56
1994-03-28,66.38
1994-03-29,54.68
1994-03-30,44.42
1994-03-31,43.52
1994-04-01,56.3
1994-04-02,48.2
1994-04-03,47.3
1994-04-04,50.18
1994-04-05,48.2
1994-04-06,35.96
1994-04-07,39.56
1994-04-08,37.58
1994-04-09,39.02
1994-04-10,51.62
1994-04-11,62.96
1994-04-12,51.44
1994-04-13,52.34
1994-04-14,
1994-04-15,72.5
1994-04-16,63.68
1994-04-17,64.94
1994-04-18,68.72
1994-04-19,64.22
1994-04-20,67.46
1994-04-21,52.7
1994-04-22,52.52
1994-04-23,50.54
1994-04-24,43.7
1994-04-25,45.5
1994-04-26,41.36
1994-04-27,46.94
1994-04-28,57.2
1994-04-29,54.32
1994-04-30,49.82
1994-05-01,52.52
1994-05-02,56.12
1994-05-03,48.56
1994-05-04,54.32
1994-05-05,56.3
1994-05-06,68.0
1994-05-07,68.18
1994-05-08,71.24
1994-05-09,73.4
1994-05-10,76.82
1994-05-11,68.36
1994-05-12,59.72
1994-05-13,61.7
1994-05-14,64.22
1994-05-15,39.02
1994-05-16,44.78
1994-05-17,46.4
1994-05-18,55.58
1994-05-19,45.14
1994-05-20,52.52
1994-05-21,48.56
1994-05-22,64.04
1994-05-23,73.94
1994-05-24,78.44
1994-05-25,66.38
1994-05-26,54.5
1994-05-27,59.72
1994-05-28,57.38
1994-05-29,60.98
1994-05-30,75.02
1994-05-31,59.0
1994-06-01,63.32
1994-06-02,68.18
1994-06-03,64.58
1994-06-04,61.88
1994-06-05,56.3
1994-06-06,44.78
1994-06-07,52.52
1994-06-08,65.12
1994-06-09,69.98
1994-06-10,80.42
1994-06-11,72.14
1994-06-12,68.72
1994-06-13,53.42
1994-06-14,51.08
1994-06-15,50.72
1994-06-16,60.62
1994-06-17,54.5
1994-06-18,62.96
1994-06-19,74.66
1994-06-20,76.64
1994-06-21,76.1
1994-06-22,78.62
1994-06-23,63.68
1994-06-24,71.6
1994-06-25,63.68
1994-06-26,70.7
1994-06-27,81.14
1994-06-28,83.84
1994-06-29,78.62
1994-06-30,75.92
1994-07-01,71.24
1994-07-02,68.54
1994-07-03,70.88
1994-07-04,69.26
1994-07-05,60.98
1994-07-06,80.78
1994-07-07,84.2
1994-07-08,87.44
1994-07-09,81.68
1994-07-10,80.96
1994-07-11,81.5
1994-07-12,78.08
1994-07-13,82.94
1994-07-14,78.44
1994-07-15,85.46
1994-07-16,88.52
1994-07-17,82.58
1994-07-18,83.48
1994-07-19,89.78
1994-07-20,93.02
1994-07-21,93.92
1994-07-22,80.42
1994-07-23,84.38
1994-07-24,82.94
1994-07-25,77.36
1994-07-26,82.76
1994-07-27,84.92
1994-07-28,83.3
1994-07-29,81.86
1994-07-30,79.16
1994-07-31,80.96
1994-08-01,82.58
1994-08-02,79.52
1994-08-03,77.72
1994-08-04,77.36
1994-08-05,73.58
1994-08-06,79.16
1994-08-07,71.42
1994-08-08,68.36
1994-08-09,78.62
1994-08-10,80.06
1994-08-11,80.96
1994-08-12,81.14
1994-08-13,84.56
1994-08-14,81.86
1994-08-15,77.0
1994-08-16,73.58
1994-08-17,79.34
1994-08-18,74.84
1994-08-19,71.6
1994-08-20,72.32
1994-08-21,67.1
1994-08-22,73.94
1994-08-23,77.18
1994-08-24,77.36
1994-08-25,79.52
1994-08-26,78.62
1994-08-27,81.32
1994-08-28,71.24
1994-08-29,72.5
1994-08-30,80.78
1994-08-31,72.14
1994-09-01,68.54
1994-09-02,63.68
1994-09-03,60.62
1994-09-04,77.36
1994-09-05,83.48
1994-09-06,79.88
1994-09-07,78.08
1994-09-08,67.64
1994-09-09,54.5
1994-09-10,53.96
1994-09-11,51.98
1994-09-12,58.64
1994-09-13,62.06
1994-09-14,67.82
1994-09-15,75.56
1994-09-16,78.62